CES6837 ZSNJ-ZBTJ

Flight info

Callsign CES6837
Flight time N/A
Altitude 36100
Route OF A470 DPX A593 DALIM W157 AVBOX
Aircraft A320/M-SDE3FGHIRWY/LB1

Departure

Time 2026-04-18 11:49
Airport Nanjing Lukou International Airport (ZSNJ)

Arrival

Time N/A
Airport Tianjin Binhai International Airport (ZBTJ)
Time Latitude Longitude Altitude Speed Heading
2026-04-18 11:23 31.72849 118.86689 56 ft 0 kts 328°
2026-04-18 11:41 31.72837 118.86698 51 ft 4 kts 328°
2026-04-18 11:42 31.72814 118.86715 53 ft 4 kts 328°
2026-04-18 11:42 31.72792 118.86732 56 ft 4 kts 316°
2026-04-18 11:42 31.72782 118.86751 55 ft 3 kts 241°
2026-04-18 11:42 31.72793 118.86772 55 ft 3 kts 238°
2026-04-18 11:43 31.72795 118.86775 52 ft 0 kts 238°
2026-04-18 11:44 31.72773 118.86735 54 ft 23 kts 237°
2026-04-18 11:44 31.72657 118.86524 54 ft 30 kts 238°
2026-04-18 11:45 31.72695 118.86434 52 ft 23 kts 323°
2026-04-18 11:45 31.72896 118.86283 54 ft 37 kts 328°
2026-04-18 11:45 31.73114 118.86126 55 ft 37 kts 329°
2026-04-18 11:45 31.73331 118.85977 54 ft 37 kts 330°
2026-04-18 11:46 31.73538 118.85819 53 ft 26 kts 325°
2026-04-18 11:46 31.73688 118.85697 54 ft 28 kts 325°
2026-04-18 11:46 31.73709 118.85635 58 ft 6 kts 235°
2026-04-18 11:46 31.73688 118.85600 53 ft 5 kts 235°
2026-04-18 11:47 31.73643 118.85526 56 ft 26 kts 234°
2026-04-18 11:47 31.73490 118.85244 55 ft 54 kts 239°
2026-04-18 11:47 31.73307 118.84887 50 ft 45 kts 239°
2026-04-18 11:47 31.73221 118.84703 56 ft 2 kts 278°
2026-04-18 11:48 31.73226 118.84695 58 ft 1 kts 310°
2026-04-18 11:48 31.73269 118.84667 59 ft 13 kts 330°
2026-04-18 11:48 31.73385 118.84647 58 ft 18 kts 49°
2026-04-18 11:48 31.73557 118.84971 52 ft 86 kts 58°
2026-04-18 11:49 31.73994 118.85785 61 ft 149 kts 58°
2026-04-18 11:49 31.74558 118.86854 616 ft 154 kts 59°
2026-04-18 11:49 31.75122 118.87937 1316 ft 156 kts 59°
2026-04-18 11:49 31.75728 118.89072 1765 ft 176 kts 59°
2026-04-18 11:50 31.76423 118.90371 2152 ft 199 kts 59°
2026-04-18 11:50 31.77200 118.91821 2554 ft 221 kts 58°
2026-04-18 11:50 31.78029 118.93371 3353 ft 226 kts 58°
2026-04-18 11:50 31.78847 118.94902 4219 ft 230 kts 58°
2026-04-18 11:51 31.79715 118.96527 5081 ft 235 kts 57°
2026-04-18 11:51 31.80596 118.98175 5944 ft 239 kts 57°
2026-04-18 11:51 31.81481 118.99836 6807 ft 242 kts 56°
2026-04-18 11:51 31.82382 119.01524 7613 ft 246 kts 56°
2026-04-18 11:52 31.83303 119.03249 8415 ft 252 kts 56°
2026-04-18 11:52 31.84231 119.04994 9237 ft 256 kts 56°
2026-04-18 11:52 31.85195 119.06810 10051 ft 262 kts 55°
2026-04-18 11:52 31.86440 119.08464 10434 ft 281 kts 32°
2026-04-18 11:53 31.88292 119.09339 10744 ft 298 kts
2026-04-18 11:53 31.90357 119.09040 11027 ft 317 kts 337°
2026-04-18 11:53 31.92429 119.07812 11271 ft 340 kts 330°
2026-04-18 11:53 31.94511 119.06440 11817 ft 350 kts 330°
2026-04-18 11:54 31.96644 119.04995 12471 ft 357 kts 330°
2026-04-18 11:54 31.98782 119.03541 13213 ft 361 kts 330°
2026-04-18 11:54 32.00952 119.02072 13950 ft 365 kts 330°
2026-04-18 11:54 32.03159 119.00591 14641 ft 367 kts 331°
2026-04-18 11:55 32.05392 118.99106 15353 ft 369 kts 331°
2026-04-18 11:55 32.07637 118.97624 16060 ft 371 kts 332°
2026-04-18 11:55 32.09900 118.96132 16763 ft 374 kts 332°
2026-04-18 11:55 32.12181 118.94626 17437 ft 377 kts 332°
2026-04-18 11:56 32.14481 118.93107 18106 ft 380 kts 332°
2026-04-18 11:56 32.16759 118.91601 18701 ft 383 kts 332°
2026-04-18 11:56 32.19094 118.90054 19288 ft 386 kts 331°
2026-04-18 11:56 32.21419 118.88512 19863 ft 388 kts 331°
2026-04-18 11:57 32.23787 118.86940 20432 ft 391 kts 331°
2026-04-18 11:57 32.26181 118.85352 20992 ft 394 kts 331°
2026-04-18 11:57 32.28558 118.83774 21536 ft 396 kts 330°
2026-04-18 11:57 32.30968 118.82169 22069 ft 399 kts 330°
2026-04-18 11:58 32.33402 118.80544 22588 ft 401 kts 330°
2026-04-18 11:58 32.35844 118.78911 23102 ft 404 kts 330°
2026-04-18 11:58 32.38289 118.77277 23584 ft 406 kts 330°
2026-04-18 11:58 32.40763 118.75626 23979 ft 409 kts 330°
2026-04-18 11:59 32.43243 118.73972 24353 ft 411 kts 330°
2026-04-18 11:59 32.45745 118.72308 24713 ft 414 kts 330°
2026-04-18 11:59 32.48255 118.70636 25068 ft 417 kts 329°
2026-04-18 11:59 32.50808 118.68929 25422 ft 419 kts 329°
2026-04-18 12:00 32.53349 118.67226 25778 ft 422 kts 330°
2026-04-18 12:00 32.55883 118.65525 26113 ft 425 kts 330°
2026-04-18 12:00 32.58437 118.63813 26436 ft 427 kts 329°
2026-04-18 12:00 32.61026 118.62075 26757 ft 430 kts 329°
2026-04-18 12:01 32.66278 118.58573 27384 ft 435 kts 332°
2026-04-18 12:01 32.69090 118.57200 27672 ft 439 kts 341°
2026-04-18 12:01 32.71994 118.56167 27945 ft 442 kts 342°
2026-04-18 12:02 32.74964 118.55116 28235 ft 444 kts 341°
2026-04-18 12:02 32.77927 118.54064 28504 ft 447 kts 341°
2026-04-18 12:02 32.80919 118.52999 28763 ft 449 kts 342°
2026-04-18 12:02 32.83897 118.51933 29001 ft 451 kts 341°
2026-04-18 12:03 32.86916 118.50848 29232 ft 453 kts 341°
2026-04-18 12:03 32.89936 118.49767 29479 ft 454 kts 342°
2026-04-18 12:03 32.91267 118.49306 29613 ft 454 kts 342°
2026-04-18 12:03 32.93218 118.48622 29806 ft 454 kts 342°
2026-04-18 12:04 32.96115 118.47590 30119 ft 453 kts 341°
2026-04-18 12:04 32.99173 118.46485 30385 ft 453 kts 341°
2026-04-18 12:04 33.02178 118.45390 30650 ft 453 kts 341°
2026-04-18 12:04 33.05172 118.44296 30919 ft 452 kts 341°
2026-04-18 12:05 33.08166 118.43206 31193 ft 452 kts 341°
2026-04-18 12:05 33.11165 118.42124 31469 ft 451 kts 341°
2026-04-18 12:05 33.14183 118.41044 31748 ft 451 kts 341°
2026-04-18 12:05 33.17177 118.39974 32026 ft 450 kts 340°